Location: ?astrovice
(49.6513°N, 14.9287°E)
Time: 07:25:01
(UTC+00:00)

STARLINK-1230 - Pass Details

Date: 09 April 2020
Orbit: 548 x 551 km, 53.0° (Epoch: 03 June)

Event Time Altitude Azimuth Distance (km) Brightness Sun altitude
Rises 19:23:14 0° 293° (WNW) 2,725 8.9 -15.4°
Reaches altitude 10° 19:25:28 10° 291° (WNW) 1,829 7.6 -15.7°
Maximum altitude 19:29:37 74° 208° (SSW) 576 3.6 -16.3°
Enters shadow 19:31:19 34° 129° (SE) 916 4.2 -16.5°
